Location: Belfast
(54.5830°N, 5.9330°W)
Time: 13:01:50
(UTC+01:00)

ISS - Pass Details

Date: 20 May 2018
Orbit: 402 x 407 km, 51.6° (Epoch: 20 May)

Event Time Altitude Azimuth Distance (km) Brightness Sun altitude
Rises 23:41:22 0° 227° (SW) 2,313 -0.2 -12.3°
Reaches altitude 10° 23:43:38 10° 214° (SW) 1,455 -1.3 -12.5°
Maximum altitude 23:46:25 26° 156° (SSE) 836 -2.9 -12.6°
Drops below altitude 10° 23:49:12 10° 97° (E) 1,459 -1.3 -12.8°
Sets 23:51:28 0° 84° (E) 2,320 -0.1 -12.9°
